Simultaneous Nadir Overpasses (SNOs) Predictions

Prediction of SNOs between AQUA and NPP Satellite Orbit:

Table of predicted SNOs for the next 14.0 days since TLE Epoch: 9/28/2024
Index Date (AQUA) Time (AQUA) Lat,Lon (AQUA) SZA (AQUA ) Date (NPP) Time (NPP) Lat,Lon (NPP) SZA (NPP ) Distance(km) Time Diff (sec)
1 09/29/2024 03:59:05 81.29, 47.02 89.69 09/29/2024 03:58:46 81.29, 47.01 89.70 0.19 19
2 09/29/2024 04:48:26 -81.29,-145.36 90.30 09/29/2024 04:49:30 -81.30,-145.18 90.36 3.17 64
3 10/01/2024 15:11:57 81.30,-121.09 90.59 10/01/2024 15:11:06 81.29,-121.18 90.63 1.66 51
4 10/01/2024 16:01:18 -81.30, 46.56 89.40 10/01/2024 16:01:50 -81.30, 46.64 89.43 1.33 32
5 10/04/2024 03:14:08 -81.29,-121.66 88.48 10/04/2024 03:14:10 -81.29,-121.66 88.48 0.12 2
6 10/06/2024 14:26:54 -81.30, 70.37 87.60 10/06/2024 14:26:28 -81.29, 70.31 87.58 1.20 26
7 10/06/2024 15:16:14 81.31,-121.88 92.41 10/06/2024 15:17:11 81.30,-121.82 92.36 1.09 57
8 10/09/2024 01:39:40 -81.28, -98.12 86.66 10/09/2024 01:38:48 -81.29, -98.21 86.61 1.59 52
9 10/09/2024 02:28:59 81.30, 69.96 93.31 10/09/2024 02:29:30 81.30, 70.03 93.28 1.30 31



Historial Predications of SNOs between AQUA and NPP
